Flag for USA

Past Weather in Tacoma, Washington, USA — Yesterday and Last 2 Weeks

Now
66 °F

Sunny.


Feels Like: 66 °F
Forecast: 72 / 54 °F
Wind: 7 mph from North

Location: Tacoma Narrows Airport

Current Time: Jul 10, 2020 at 2:35:47 pm

Latest Report: Jul 10, 2020 at 1:53 pm


Visibility: 10 mi

Pressure: 30.20 "Hg

Humidity: 56%

Dew Point: 50 °F

Location of TacomaLocation

Past Weather in Tacoma — Graph

°F

Tacoma Temperature Yesterday

Maximum temperature yesterday: 69 °F (at 5:53 pm)
Minimum temperature yesterday: 55 °F (at 5:53 am)
Average temperature yesterday: 60 °F

High & Low Weather Summary for the Past Weeks

 TemperatureHumidityPressure
High78 °F (Jun 26, 3:53 pm)100% (Jun 28, 3:53 am)30.23 "Hg (Jun 28, 3:53 am)
Low51 °F (Jun 28, 1:38 am)43% (Jul 5, 5:53 pm)29.85 "Hg (Jun 28, 1:53 am)
Average59 °F75%30.04 "Hg
* Reported Jun 25 12:53 pm — Jul 10 12:53 pm, Tacoma. Weather by CustomWeather, © 2020

Note: Actual official high and low records may vary slightly from our data, if they occured in-between our weather recording intervals... More about our weather records

Tacoma Weather History for the Previous 24 Hours

Scroll right to see more
 ConditionsComfort  
Time TempWeatherWind HumidityBarometerVisibility
12:53 pm
Fri, Jul 10
65 °FScattered clouds.6 mph59%30.21 "Hg10 mi
11:53 am63 °FBroken clouds.6 mph63%30.21 "Hg10 mi
10:53 am61 °FOvercast.7 mph65%30.21 "Hg10 mi
9:53 am58 °FOvercast.No wind70%30.20 "Hg10 mi
8:53 am57 °FOvercast.6 mph72%30.19 "Hg10 mi
7:53 am55 °FOvercast.6 mph83%30.18 "Hg10 mi
6:53 am53 °FOvercast.7 mph86%30.16 "Hg10 mi
5:53 am52 °FOvercast.6 mph89%30.15 "Hg10 mi
5:03 am52 °FPassing clouds.7 mph89%30.13 "Hg10 mi
4:53 am51 °FPassing clouds.7 mph92%30.13 "Hg10 mi
4:27 am52 °FPassing clouds.6 mph89%30.13 "Hg10 mi
3:53 am51 °FClear.7 mph89%30.11 "Hg10 mi
2:53 am53 °FClear.5 mph83%30.11 "Hg10 mi
1:53 am53 °FClear.5 mph86%30.09 "Hg10 mi
12:53 am55 °FClear.3 mph80%30.08 "Hg10 mi
11:53 pm
Thu, Jul 9
57 °FPassing clouds.No wind78%30.08 "Hg10 mi
10:53 pm56 °FClear.5 mph81%30.06 "Hg10 mi
9:53 pm59 °FClear.No wind72%30.05 "Hg10 mi
8:53 pm64 °FOvercast.3 mph63%30.03 "Hg10 mi
7:53 pm66 °FPartly sunny.7 mph59%30.02 "Hg10 mi
6:53 pm68 °FSunny.10 mph57%30.01 "Hg10 mi
5:53 pm69 °FSunny.7 mph57%30.00 "Hg10 mi
4:53 pm68 °FScattered clouds.8 mph68%30.01 "Hg10 mi
3:53 pm65 °FOvercast.9 mph73%30.02 "Hg10 mi
2:53 pm66 °FCloudy.7 mph70%30.01 "Hg10 mi
Weather by CustomWeather, © 2020

See weather overview